QPF
0.00 0.00 0.00 0.00 0.00 0.00 0.00 0.00 0.00 0.00 0.00 0.00 0.00 0.00 0.00 0.00 0.00 0.00 0.00 0.00 0.00 0.00 0.00 0.00 0.00 0.00 0.00 0.00 0.00 0.00 0.00 0.00 0.00 0.00 0.00 0.00 0.00 0.00 0.00 0.00 0.00 0.00 0.00 0.00 0.00 0.00 0.00
0.00 0.00 0.00 0.00 0.00 0.00 0.00 0.00 0.00 0.00 0.00 0.00 0.00 0.00 0.00 0.00 0.00 0.00 0.00 0.00 0.00 0.00 0.00 0.00 0.00 0.00 0.00 0.00 0.00 0.00 0.00 0.00 0.00 0.00 0.00 0.00 0.00 0.00 0.00 0.00 0.00 0.00 0.00 0.00 0.00 0.00 0.00
0.00 0.00 0.00 0.00 0.00 0.00 0.00 0.00 0.00 0.00 0.00 0.00 0.00 0.00 0.00 0.00 0.00 0.00 0.00 0.00 0.00 0.00 0.00 0.00 0.00 0.00 0.00 0.00 0.00 0.00 0.00 0.00 0.00 0.00 0.00 0.00 0.00 0.00 0.00 0.00 0.00 0.00 0.00 0.00 0.00 0.00 0.00
0.00 0.00 0.00 0.00 0.00 0.00 0.00 0.00 0.00 0.00 0.00 0.00 0.00 0.00 0.00 0.00 0.00 0.00 0.00 0.00 0.00 0.00 0.00 0.00 0.00 0.00 0.00 0.00 0.00 0.00 0.00 0.00 0.00 0.00 0.00 0.00 0.00 0.00 0.00 0.00 0.00 0.00 0.00 0.00 0.00 0.00 0.00
0.01 0.01 0.00 0.00 0.00 0.00 0.00 0.00 0.00 0.00 0.00 0.00 0.00 0.00 0.00 0.00 0.00 0.00 0.00 0.00 0.00 0.00 0.00 0.00 0.00 0.00 0.00 0.00 0.00 0.00 0.00 0.00 0.00 0.00 0.00 0.00 0.00 0.00 0.00 0.00 0.00 0.00 0.00 0.00 0.00 0.00 0.00
0.02 0.02 0.01 0.00 0.00 0.00 0.00 0.00 0.00 0.00 0.00 0.00 0.00 0.00 0.00 0.00 0.00 0.00 0.00 0.00 0.00 0.00 0.00 0.00 0.00 0.00 0.00 0.00 0.00 0.00 0.00 0.00 0.00 0.00 0.00 0.00 0.00 0.00 0.00 0.00 0.00 0.00 0.00 0.00 0.00 0.00 0.00
0.03 0.02 0.01 0.00 0.00 0.00 0.01 0.01 0.01 0.00 0.00 0.00 0.00 0.00 0.00 0.00 0.00 0.00 0.00 0.00 0.00 0.00 0.00 0.00 0.00 0.00 0.00 0.00 0.00 0.00 0.00 0.00 0.00 0.00 0.00 0.00 0.00 0.00 0.00 0.00 0.00 0.00 0.00 0.00 0.00 0.00 0.00
0.11 0.09 0.03 0.01 0.00 0.00 0.01 0.02 0.02 0.02 0.01 0.00 0.00 0.00 0.00 0.00 0.00 0.00 0.00 0.00 0.00 0.00 0.00 0.00 0.00 0.00 0.00 0.00 0.00 0.00 0.00 0.00 0.00 0.00 0.00 0.00 0.00 0.00 0.00 0.00 0.00 0.00 0.00 0.00 0.00 0.00 0.00
0.09 0.11 0.12 0.09 0.03 0.01 0.03 0.06 0.06 0.03 0.01 0.00 0.00 0.00 0.00 0.00 0.00 0.00 0.00 0.00 0.00 0.00 0.00 0.00 0.00 0.00 0.00 0.00 0.00 0.00 0.00 0.00 0.00 0.00 0.00 0.00 0.00 0.00 0.00 0.00 0.00 0.00 0.00 0.00 0.00 0.00 0.00
0.13 0.12 0.09 0.09 0.08 0.05 0.04 0.04 0.02 0.01 0.00 0.00 0.00 0.00 0.00 0.00 0.00 0.00 0.00 0.00 0.00 0.00 0.00 0.00 0.00 0.00 0.00 0.00 0.00 0.00 0.00 0.00 0.00 0.00 0.00 0.00 0.00 0.00 0.00 0.00 0.00 0.00 0.00 0.00 0.00 0.00 0.00
0.18 0.17 0.14 0.10 0.07 0.03 0.02 0.02 0.01 0.01 0.00 0.00 0.00 0.00 0.00 0.00 0.00 0.00 0.00 0.00 0.00 0.00 0.00 0.00 0.00 0.00 0.00 0.00 0.00 0.00 0.00 0.00 0.00 0.00 0.00 0.00 0.00 0.00 0.00 0.00 0.00 0.00 0.00 0.00 0.00 0.00 0.00
0.23 0.20 0.13 0.11 0.07 0.03 0.02 0.01 0.00 0.00 0.00 0.00 0.00 0.00 0.00 0.00 0.00 0.00 0.00 0.00 0.00 0.00 0.00 0.00 0.00 0.00 0.00 0.00 0.00 0.00 0.00 0.00 0.00 0.00 0.00 0.00 0.00 0.00 0.00 0.00 0.00 0.00 0.00 0.00 0.00 0.00 0.00
0.16 0.18 0.20 0.16 0.08 0.03 0.02 0.01 0.00 0.00 0.00 0.00 0.00 0.00 0.00 0.00 0.00 0.00 0.00 0.00 0.00 0.00 0.00 0.00 0.00 0.00 0.00 0.00 0.00 0.00 0.00 0.00 0.00 0.00 0.00 0.00 0.00 0.00 0.00 0.00 0.00 0.00 0.00 0.01 0.00 0.00 0.00
0.23 0.17 0.18 0.19 0.13 0.04 0.01 0.00 0.00 0.00 0.00 0.00 0.00 0.00 0.00 0.00 0.00 0.00 0.00 0.00 0.00 0.00 0.00 0.00 0.00 0.00 0.00 0.00 0.00 0.00 0.00 0.00 0.00 0.00 0.00 0.00 0.00 0.00 0.00 0.00 0.00 0.00 0.00 0.05 0.11 0.03 0.01
0.37 0.27 0.23 0.18 0.11 0.04 0.01 0.00 0.00 0.00 0.00 0.00 0.00 0.00 0.00 0.00 0.00 0.00 0.00 0.00 0.00 0.00 0.00 0.00 0.00 0.00 0.00 0.00 0.00 0.00 0.00 0.00 0.00 0.00 0.00 0.00 0.00 0.00 0.00 0.00 0.01 0.03 0.03 0.04 0.17 0.04 0.02
0.52 0.45 0.32 0.21 0.10 0.03 0.01 0.00 0.00 0.00 0.00 0.00 0.00 0.00 0.00 0.00 0.00 0.00 0.00 0.00 0.00 0.00 0.00 0.00 0.00 0.00 0.00 0.00 0.00 0.00 0.00 0.00 0.00 0.00 0.00 0.00 0.00 0.00 0.00 0.00 0.00 0.01 0.03 0.08 0.10 0.11 0.06
0.43 0.30 0.23 0.17 0.10 0.04 0.01 0.00 0.00 0.00 0.00 0.00 0.00 0.00 0.00 0.00 0.00 0.00 0.00 0.00 0.00 0.00 0.00 0.00 0.00 0.00 0.00 0.00 0.00 0.00 0.00 0.00 0.00 0.00 0.00 0.00 0.00 0.00 0.00 0.00 0.00 0.00 0.00 0.05 0.13 0.09 0.10
0.16 0.14 0.11 0.06 0.03 0.01 0.01 0.00 0.00 0.00 0.00 0.00 0.00 0.00 0.00 0.00 0.00 0.00 0.00 0.00 0.00 0.00 0.00 0.00 0.00 0.00 0.00 0.00 0.00 0.00 0.00 0.00 0.00 0.00 0.00 0.00 0.00 0.00 0.00 0.00 0.00 0.00 0.00 0.02 0.16 0.12 0.03
0.05 0.04 0.02 0.01 0.00 0.01 0.01 0.00 0.00 0.00 0.00 0.00 0.00 0.00 0.00 0.00 0.00 0.00 0.00 0.00 0.00 0.00 0.00 0.00 0.00 0.00 0.00 0.00 0.00 0.00 0.00 0.00 0.00 0.00 0.00 0.00 0.00 0.00 0.00 0.00 0.00 0.00 0.00 0.00 0.01 0.04 0.02
0.01 0.00 0.00 0.00 0.00 0.00 0.00 0.00 0.00 0.00 0.00 0.00 0.00 0.00 0.00 0.00 0.00 0.00 0.00 0.00 0.00 0.00 0.00 0.00 0.00 0.00 0.00 0.00 0.00 0.00 0.00 0.00 0.00 0.00 0.00 0.00 0.00 0.00 0.00 0.00 0.00 0.00 0.00 0.00 0.13 0.18 0.01
0.02 0.01 0.01 0.00 0.00 0.00 0.00 0.00 0.00 0.00 0.00 0.00 0.00 0.00 0.00 0.00 0.00 0.00 0.00 0.00 0.00 0.00 0.00 0.00 0.00 0.00 0.00 0.00 0.00 0.00 0.00 0.00 0.00 0.00 0.00 0.00 0.00 0.00 0.00 0.00 0.00 0.00 0.04 0.13 0.31 0.10 0.11
0.02 0.02 0.00 0.00 0.00 0.00 0.00 0.00 0.00 0.00 0.00 0.00 0.00 0.00 0.00 0.00 0.00 0.00 0.00 0.00 0.00 0.00 0.00 0.00 0.00 0.00 0.00 0.00 0.00 0.00 0.00 0.00 0.00 0.00 0.00 0.00 0.00 0.00 0.00 0.00 0.00 0.06 0.11 0.12 0.25 0.12 0.02
0.02 0.02 0.01 0.01 0.00 0.00 0.00 0.00 0.00 0.00 0.00 0.00 0.00 0.00 0.00 0.00 0.00 0.00 0.00 0.00 0.00 0.00 0.00 0.00 0.00 0.00 0.00 0.00 0.00 0.00 0.00 0.00 0.00 0.00 0.00 0.00 0.00 0.00 0.00 0.00 0.00 0.11 0.03 0.04 0.30 0.16 0.06
0.03 0.03 0.02 0.01 0.00 0.00 0.00 0.00 0.00 0.00 0.00 0.00 0.00 0.00 0.00 0.00 0.00 0.00 0.00 0.00 0.00 0.00 0.00 0.00 0.00 0.00 0.00 0.00 0.00 0.00 0.00 0.00 0.00 0.00 0.00 0.00 0.00 0.00 0.00 0.00 0.01 0.04 0.01 0.00 0.10 0.11 0.07
0.03 0.04 0.03 0.01 0.00 0.00 0.00 0.00 0.00 0.00 0.00 0.00 0.00 0.00 0.00 0.00 0.00 0.00 0.00 0.00 0.00 0.00 0.00 0.00 0.00 0.00 0.00 0.00 0.00 0.00 0.00 0.00 0.00 0.00 0.02 0.02 0.01 0.04 0.02 0.00 0.00 0.01 0.00 0.00 0.01 0.07 0.03
0.05 0.04 0.03 0.01 0.00 0.00 0.00 0.00 0.00 0.00 0.00 0.00 0.00 0.00 0.00 0.00 0.00 0.00 0.00 0.00 0.00 0.00 0.00 0.00 0.00 0.00 0.00 0.00 0.00 0.00 0.00 0.00 0.00 0.00 0.00 0.00 0.00 0.02 0.01 0.01 0.04 0.05 0.00 0.00 0.01 0.10 0.03
0.06 0.03 0.02 0.02 0.01 0.00 0.00 0.00 0.00 0.00 0.00 0.00 0.00 0.00 0.00 0.00 0.00 0.00 0.00 0.00 0.00 0.00 0.00 0.00 0.00 0.00 0.00 0.00 0.00 0.00 0.00 0.00 0.00 0.00 0.00 0.00 0.00 0.00 0.00 0.01 0.07 0.04 0.00 0.00 0.00 0.03 0.07
0.09 0.05 0.04 0.02 0.01 0.00 0.00 0.00 0.00 0.00 0.00 0.00 0.00 0.00 0.00 0.00 0.00 0.00 0.00 0.00 0.00 0.00 0.00 0.00 0.00 0.00 0.00 0.00 0.00 0.00 0.00 0.00 0.00 0.00 0.00 0.00 0.00 0.00 0.00 0.01 0.02 0.00 0.00 0.01 0.03 0.02 0.05
0.08 0.08 0.06 0.04 0.02 0.00 0.00 0.00 0.00 0.00 0.00 0.00 0.00 0.00 0.00 0.00 0.00 0.00 0.00 0.00 0.00 0.00 0.00 0.00 0.00 0.00 0.00 0.00 0.00 0.00 0.00 0.00 0.00 0.00 0.00 0.00 0.00 0.00 0.01 0.02 0.01 0.00 0.00 0.01 0.02 0.02 0.02
MSLP
1017.41 1017.77 1017.86 1018.45 1018.85 1019.23 1019.46 1019.72 1019.84 1020.05 1020.06 1020.11 1020.50 1020.20 1020.26 1020.06 1019.69 1019.43 1019.08 1018.50 1018.01 1017.81 1017.47 1017.20 1016.96 1016.66 1016.02 1015.16 1013.86 1012.89 1012.66 1012.46 1012.33 1012.34 1012.63 1012.77 1012.80 1013.08 1013.39 1013.25 1012.80 1012.18 1011.71 1011.12 1010.45 1009.94 1009.20
1016.60 1016.98 1017.15 1017.62 1018.06 1018.59 1019.14 1019.40 1019.59 1019.71 1019.72 1019.70 1019.93 1020.08 1019.94 1019.85 1019.43 1019.11 1018.79 1018.49 1017.89 1017.76 1017.51 1017.24 1016.92 1016.69 1016.32 1014.61 1013.00 1012.82 1012.56 1012.39 1012.29 1012.31 1012.45 1012.63 1013.01 1013.24 1013.28 1013.25 1013.34 1012.53 1012.12 1011.30 1010.44 1009.79 1009.06
1015.26 1015.92 1016.59 1016.83 1017.47 1017.95 1018.42 1018.78 1019.03 1019.69 1019.68 1019.45 1019.69 1019.60 1019.76 1019.58 1019.23 1018.89 1018.56 1018.21 1017.77 1017.69 1017.35 1017.24 1016.95 1016.76 1015.72 1013.65 1012.92 1012.81 1012.60 1012.60 1012.45 1012.42 1012.48 1012.33 1012.65 1013.26 1013.55 1013.58 1013.12 1013.06 1012.59 1011.42 1010.17 1009.67 1009.04
1014.20 1014.86 1015.49 1016.03 1016.66 1017.45 1017.89 1018.25 1018.72 1018.98 1019.68 1019.43 1018.92 1019.60 1019.36 1019.62 1019.13 1018.84 1018.44 1017.87 1017.39 1017.29 1017.17 1017.02 1016.88 1016.64 1014.72 1012.95 1012.79 1012.75 1012.69 1012.54 1012.20 1012.15 1012.21 1011.98 1012.41 1013.18 1013.64 1013.56 1013.65 1013.64 1013.29 1012.45 1010.38 1010.13 1009.58
1012.72 1013.57 1014.38 1015.09 1016.05 1016.82 1017.63 1017.80 1018.27 1018.57 1018.97 1019.30 1019.08 1018.99 1019.24 1019.27 1019.07 1018.72 1018.20 1017.35 1016.88 1016.64 1016.69 1016.89 1016.89 1016.18 1014.31 1013.01 1013.00 1012.86 1012.77 1012.75 1012.67 1012.30 1012.03 1011.84 1012.61 1013.44 1013.85 1014.49 1014.97 1014.63 1014.47 1013.26 1010.45 1010.64 1009.82
1010.94 1012.09 1012.84 1014.11 1015.01 1015.85 1016.78 1017.48 1018.07 1018.49 1018.66 1018.88 1018.71 1019.04 1019.12 1019.03 1018.73 1018.56 1018.00 1017.04 1016.45 1016.53 1016.47 1016.61 1016.21 1015.86 1013.99 1013.47 1013.24 1013.24 1012.73 1012.68 1012.92 1012.89 1012.84 1012.94 1013.65 1014.38 1015.15 1015.64 1015.98 1015.59 1015.00 1013.71 1012.43 1010.59 1010.75
1009.69 1010.41 1011.46 1012.60 1013.90 1014.85 1015.79 1016.62 1017.35 1017.90 1018.15 1018.06 1018.26 1018.81 1019.07 1018.99 1018.62 1018.37 1018.01 1016.99 1016.96 1017.10 1016.51 1015.67 1015.27 1014.60 1013.90 1013.55 1013.11 1013.13 1012.87 1012.86 1013.26 1013.88 1014.46 1014.20 1014.97 1015.45 1015.66 1015.74 1015.79 1015.50 1015.10 1013.98 1011.94 1011.60 1011.04
1008.28 1008.94 1009.94 1011.27 1012.38 1013.91 1015.06 1015.89 1016.83 1017.18 1017.42 1017.86 1017.95 1018.30 1018.71 1018.92 1018.62 1017.95 1018.02 1017.63 1017.31 1017.44 1016.53 1015.05 1014.67 1014.23 1013.81 1013.69 1013.55 1013.17 1013.00 1013.58 1014.05 1014.75 1015.15 1015.49 1015.27 1015.25 1015.23 1015.32 1015.33 1015.07 1015.04 1013.84 1012.23 1011.68 1011.61
1006.31 1007.85 1008.70 1010.26 1011.66 1012.64 1014.22 1015.37 1016.34 1016.68 1017.20 1017.55 1017.65 1017.87 1018.48 1018.67 1018.38 1017.80 1017.52 1017.29 1016.86 1017.05 1016.86 1015.01 1014.17 1013.68 1013.53 1013.66 1013.62 1013.23 1013.47 1013.77 1014.23 1014.90 1015.41 1015.76 1015.56 1015.29 1015.16 1015.23 1015.34 1015.07 1015.26 1014.33 1013.61 1011.61 1011.09
1004.49 1005.79 1007.42 1008.91 1010.35 1011.79 1013.35 1014.17 1015.92 1016.36 1017.00 1017.07 1017.34 1017.47 1018.45 1018.01 1018.15 1017.96 1017.60 1016.98 1016.79 1017.10 1016.69 1014.83 1013.92 1013.28 1013.25 1013.38 1013.56 1013.16 1013.29 1013.80 1014.41 1014.89 1015.13 1015.42 1015.43 1015.54 1015.64 1015.65 1015.78 1014.79 1014.87 1014.49 1013.64 1012.94 1011.51
1003.30 1004.35 1006.06 1007.67 1009.50 1010.64 1012.94 1013.41 1015.01 1015.61 1016.59 1016.92 1017.42 1017.52 1017.56 1018.01 1018.11 1017.79 1017.45 1016.95 1016.84 1017.24 1016.06 1014.14 1013.43 1012.91 1012.92 1013.52 1013.52 1013.62 1013.27 1013.60 1014.55 1015.16 1015.70 1016.13 1015.95 1016.01 1015.86 1015.76 1015.86 1015.36 1014.98 1014.12 1013.29 1012.52 1011.88
1001.96 1003.85 1004.94 1007.05 1008.37 1010.32 1011.75 1013.20 1014.26 1015.12 1015.81 1016.56 1017.00 1017.41 1017.04 1017.52 1018.30 1017.01 1017.08 1016.93 1017.19 1017.10 1014.75 1013.76 1013.15 1013.14 1013.37 1013.45 1013.65 1013.74 1013.82 1014.32 1014.86 1015.62 1016.17 1016.59 1016.48 1016.28 1016.04 1015.81 1015.89 1015.34 1014.73 1013.66 1012.44 1011.88 1010.97
1001.18 1003.37 1004.89 1006.77 1008.30 1010.03 1011.55 1012.77 1013.53 1014.88 1015.21 1016.20 1016.59 1016.83 1017.20 1017.07 1017.53 1016.67 1016.88 1017.16 1017.20 1015.69 1013.79 1013.48 1013.22 1013.40 1013.74 1013.98 1014.16 1014.46 1015.04 1015.67 1016.42 1017.03 1017.10 1016.99 1016.74 1016.41 1016.15 1015.83 1015.36 1015.56 1015.42 1014.30 1012.21 1011.23 1009.00
1000.42 1002.61 1004.23 1006.98 1008.46 1010.02 1011.13 1012.76 1013.35 1014.71 1014.99 1015.87 1016.39 1016.76 1016.98 1016.45 1016.42 1016.55 1016.97 1017.23 1016.07 1013.88 1013.58 1013.28 1013.40 1013.85 1014.17 1014.34 1014.86 1015.41 1016.03 1016.85 1017.30 1017.92 1018.28 1017.79 1017.10 1016.77 1016.68 1016.97 1016.19 1016.03 1016.27 1015.47 1013.15 1011.49 1008.80
1001.58 1002.41 1005.21 1006.72 1008.07 1010.55 1011.12 1011.89 1013.63 1014.25 1014.86 1015.42 1016.21 1016.53 1017.00 1016.10 1015.70 1016.38 1017.32 1016.38 1014.44 1013.70 1013.53 1013.51 1014.09 1014.22 1014.50 1014.97 1015.44 1016.15 1016.87 1017.50 1017.64 1017.92 1018.80 1018.43 1017.37 1016.86 1016.47 1016.26 1016.63 1016.00 1016.16 1015.54 1013.80 1011.09 1009.36
1003.31 1004.62 1004.83 1007.28 1009.02 1009.92 1011.14 1012.21 1013.56 1013.73 1014.53 1015.29 1015.97 1016.21 1016.46 1015.94 1015.56 1016.53 1016.98 1015.80 1014.17 1013.40 1013.48 1013.74 1014.06 1014.35 1014.75 1015.63 1016.20 1016.74 1017.43 1017.60 1017.59 1017.77 1018.41 1018.67 1017.47 1016.95 1016.32 1016.18 1015.63 1016.11 1015.67 1014.99 1013.96 1011.99 1009.34
1004.73 1006.36 1007.45 1008.12 1009.29 1010.11 1011.46 1012.36 1013.55 1013.39 1014.06 1015.14 1015.80 1016.06 1015.85 1015.86 1015.68 1016.46 1016.50 1015.56 1014.46 1013.82 1013.59 1014.10 1014.51 1014.97 1015.57 1015.96 1016.37 1017.21 1017.77 1017.61 1017.45 1017.78 1018.18 1018.67 1018.97 1017.69 1016.90 1016.67 1016.34 1016.08 1015.58 1015.42 1014.83 1012.95 1010.66
1006.21 1006.96 1008.17 1009.07 1009.58 1010.43 1011.55 1013.29 1013.36 1013.10 1014.19 1014.69 1015.48 1015.97 1015.90 1015.68 1016.05 1016.17 1015.83 1014.78 1014.20 1014.27 1014.18 1014.52 1015.04 1015.49 1015.88 1016.39 1016.95 1017.53 1017.62 1017.53 1017.55 1017.85 1018.47 1018.69 1019.19 1018.51 1017.46 1015.81 1015.69 1015.95 1015.70 1015.24 1014.32 1012.09 1011.17
1007.19 1008.00 1008.92 1009.47 1009.63 1010.68 1011.77 1012.45 1013.23 1013.28 1014.12 1014.36 1015.28 1016.01 1016.05 1015.52 1016.07 1016.32 1015.21 1014.50 1014.09 1014.30 1014.58 1015.00 1015.42 1015.82 1016.20 1016.90 1017.45 1017.53 1017.44 1017.47 1017.74 1018.21 1018.59 1019.04 1019.39 1019.02 1017.41 1016.68 1015.95 1015.75 1014.69 1014.68 1013.57 1011.81 1010.33
1007.78 1008.44 1009.07 1009.55 1009.98 1010.87 1011.58 1012.74 1013.39 1013.55 1013.44 1014.43 1014.79 1015.88 1016.31 1016.23 1015.93 1015.70 1015.42 1014.66 1014.48 1014.43 1014.77 1015.19 1015.83 1016.22 1016.79 1017.34 1017.52 1017.78 1017.79 1017.80 1018.16 1018.50 1018.63 1019.00 1019.57 1019.85 1019.51 1018.30 1017.27 1015.96 1015.11 1014.23 1013.54 1010.23 1009.73
1007.80 1008.47 1009.05 1009.67 1010.28 1011.10 1011.88 1012.60 1013.17 1013.40 1013.67 1014.10 1014.62 1015.25 1015.15 1016.12 1015.99 1015.76 1015.53 1014.86 1014.75 1014.86 1015.04 1015.45 1016.07 1016.47 1017.30 1017.87 1017.86 1018.14 1018.29 1018.58 1018.51 1018.58 1018.86 1019.19 1019.68 1019.37 1018.70 1017.75 1017.05 1016.13 1015.92 1014.69 1013.58 1012.61 1011.35
1008.19 1008.82 1009.32 1009.96 1010.55 1011.31 1011.94 1012.51 1013.19 1013.62 1013.70 1014.17 1014.84 1014.64 1014.91 1015.08 1015.05 1015.84 1015.67 1015.24 1014.90 1015.09 1015.39 1015.81 1016.20 1016.91 1017.59 1018.01 1018.53 1018.79 1018.92 1019.13 1019.21 1018.89 1019.17 1019.37 1019.52 1018.86 1017.84 1017.06 1016.37 1015.82 1015.84 1014.77 1014.33 1013.63 1011.97
1008.43 1009.07 1009.61 1010.23 1010.79 1011.40 1011.96 1012.44 1013.34 1013.67 1013.75 1014.44 1014.50 1014.29 1014.28 1015.62 1015.67 1015.73 1015.70 1015.28 1015.25 1015.24 1015.85 1015.94 1016.43 1016.84 1017.63 1018.24 1018.34 1018.44 1018.71 1018.70 1018.73 1018.88 1018.98 1019.45 1019.34 1019.00 1017.15 1016.59 1015.82 1015.97 1016.06 1015.35 1015.05 1014.66 1014.30
1008.55 1009.18 1009.78 1010.34 1010.98 1011.58 1012.23 1012.74 1013.31 1013.78 1014.10 1014.46 1014.93 1014.86 1015.41 1016.21 1015.52 1015.54 1015.51 1015.39 1015.77 1015.86 1016.23 1016.76 1016.62 1016.92 1017.85 1017.99 1018.01 1018.11 1018.02 1017.73 1017.75 1017.60 1018.44 1018.83 1019.04 1019.18 1017.75 1016.85 1016.47 1016.79 1016.47 1016.06 1015.84 1015.00 1014.98
1008.58 1009.25 1009.89 1010.60 1011.18 1011.84 1012.40 1013.00 1013.49 1013.91 1014.47 1014.69 1015.01 1015.28 1015.72 1016.45 1016.11 1015.96 1015.84 1015.94 1016.43 1016.71 1016.80 1016.70 1016.56 1017.00 1017.55 1018.39 1019.18 1019.10 1018.39 1017.74 1017.46 1017.20 1017.46 1017.71 1018.21 1018.24 1017.97 1017.53 1016.69 1016.92 1016.33 1016.70 1016.73 1016.23 1016.19
1008.67 1009.31 1009.98 1010.61 1011.27 1011.93 1012.50 1013.14 1013.73 1014.19 1014.49 1015.08 1015.34 1015.45 1015.93 1016.50 1017.07 1016.61 1016.53 1016.52 1017.05 1017.28 1017.42 1017.10 1016.91 1017.17 1018.09 1019.49 1020.09 1020.19 1019.57 1018.79 1018.13 1017.55 1017.18 1017.46 1017.76 1018.26 1018.11 1018.29 1017.81 1018.42 1016.85 1015.97 1016.18 1016.79 1016.80
1008.62 1009.39 1010.06 1010.71 1011.36 1012.03 1012.70 1013.36 1013.99 1014.45 1014.74 1015.34 1015.84 1015.75 1016.13 1017.10 1017.46 1016.95 1017.22 1017.24 1017.23 1017.55 1017.91 1017.97 1018.05 1018.31 1018.71 1020.41 1020.93 1020.78 1020.19 1019.15 1018.78 1018.58 1018.32 1018.29 1018.52 1018.96 1018.93 1018.72 1019.03 1019.00 1017.60 1016.30 1016.97 1019.08 1018.13
1008.54 1009.26 1010.05 1010.72 1011.44 1012.11 1012.85 1013.49 1014.09 1014.59 1014.96 1015.55 1016.49 1016.18 1016.61 1017.77 1017.93 1017.64 1017.55 1017.67 1017.61 1017.82 1018.56 1018.81 1019.00 1019.35 1019.95 1020.77 1021.26 1021.14 1020.79 1019.91 1019.61 1019.36 1019.16 1019.41 1019.65 1019.77 1019.67 1019.63 1019.91 1019.53 1018.35 1018.79 1020.07 1019.51 1019.22
1008.62 1009.18 1009.87 1010.58 1011.39 1012.06 1012.89 1013.59 1014.20 1014.81 1015.17 1015.71 1016.75 1016.65 1016.73 1017.83 1018.27 1017.85 1017.61 1017.50 1017.59 1017.84 1018.31 1018.84 1019.45 1019.57 1020.02 1020.93 1021.57 1021.47 1021.34 1020.92 1020.58 1020.32 1019.70 1019.79 1019.74 1020.13 1020.44 1020.32 1020.26 1020.46 1020.44 1020.45 1020.32 1020.02 1019.64
Thickness
5604 5602 5603 5599 5597 5594 5593 5592 5593 5592 5594 5594 5590 5594 5594 5596 5600 5602 5605 5611 5615 5616 5618 5620 5622 5625 5631 5639 5642 5653 5656 5658 5656 5653 5647 5642 5638 5633 5624 5625 5629 5633 5639 5643 5649 5649 5652
5599 5597 5597 5594 5592 5588 5584 5583 5584 5585 5586 5589 5587 5586 5588 5589 5594 5597 5599 5601 5607 5607 5608 5610 5614 5615 5619 5628 5645 5646 5648 5648 5646 5642 5637 5635 5628 5626 5621 5620 5615 5625 5627 5632 5638 5639 5641
5599 5594 5590 5591 5586 5583 5581 5578 5577 5573 5575 5579 5578 5580 5579 5582 5585 5589 5592 5594 5597 5598 5600 5601 5603 5606 5613 5625 5637 5637 5638 5637 5637 5634 5628 5631 5627 5617 5612 5606 5613 5610 5606 5619 5634 5630 5628
5597 5592 5589 5586 5583 5578 5575 5573 5570 5569 5563 5569 5575 5570 5573 5571 5576 5579 5582 5587 5591 5592 5593 5594 5595 5597 5608 5627 5630 5630 5630 5629 5631 5630 5626 5626 5622 5609 5603 5605 5598 5593 5591 5584 5625 5619 5619
5595 5591 5587 5583 5577 5572 5566 5567 5563 5562 5561 5559 5564 5566 5564 5565 5568 5570 5574 5582 5586 5588 5586 5585 5586 5590 5600 5618 5615 5620 5620 5616 5616 5618 5619 5622 5610 5598 5593 5579 5564 5570 5564 5572 5609 5604 5597
5596 5589 5588 5579 5574 5570 5563 5557 5555 5554 5555 5553 5558 5556 5555 5557 5560 5561 5567 5575 5581 5580 5579 5578 5583 5583 5599 5598 5605 5606 5612 5612 5605 5602 5599 5595 5583 5572 5563 5554 5544 5549 5551 5565 5568 5595 5570
5588 5587 5584 5578 5571 5565 5560 5556 5552 5549 5549 5551 5551 5547 5546 5547 5551 5554 5558 5567 5571 5570 5570 5579 5582 5585 5590 5595 5601 5600 5602 5600 5594 5585 5572 5579 5564 5555 5555 5554 5551 5548 5542 5545 5570 5574 5555
5582 5583 5580 5574 5569 5560 5552 5550 5545 5546 5545 5543 5542 5540 5537 5536 5540 5547 5549 5556 5556 5554 5560 5575 5578 5580 5585 5586 5580 5589 5593 5581 5576 5564 5564 5553 5553 5559 5559 5551 5546 5542 5528 5536 5551 5557 5541
5579 5572 5571 5563 5558 5556 5546 5541 5537 5538 5537 5534 5535 5533 5528 5527 5531 5538 5543 5546 5549 5548 5547 5566 5572 5573 5575 5576 5572 5576 5579 5573 5567 5560 5555 5548 5549 5554 5550 5540 5531 5533 5513 5515 5510 5533 5529
5575 5569 5562 5558 5553 5546 5540 5539 5528 5527 5525 5527 5526 5525 5519 5523 5523 5524 5530 5538 5540 5538 5531 5557 5560 5565 5569 5568 5562 5575 5574 5567 5559 5554 5553 5550 5546 5539 5530 5524 5512 5515 5509 5496 5493 5484 5472
5560 5560 5555 5550 5541 5540 5530 5531 5522 5520 5516 5516 5514 5514 5516 5513 5510 5516 5521 5527 5529 5526 5533 5554 5555 5565 5566 5559 5560 5559 5567 5562 5550 5546 5544 5531 5526 5519 5514 5512 5500 5492 5487 5489 5485 5477 5469
5550 5543 5545 5535 5533 5527 5523 5517 5513 5510 5509 5507 5506 5504 5509 5506 5500 5513 5514 5517 5516 5523 5532 5544 5550 5549 5549 5552 5551 5553 5551 5550 5546 5538 5531 5521 5516 5506 5502 5504 5486 5478 5477 5485 5489 5478 5459
5537 5529 5528 5519 5515 5512 5508 5504 5503 5498 5500 5497 5499 5500 5498 5499 5496 5506 5506 5505 5514 5516 5546 5540 5542 5542 5538 5537 5540 5539 5533 5524 5514 5502 5498 5512 5508 5498 5493 5486 5482 5470 5462 5451 5470 5470 5483
5525 5520 5515 5500 5499 5494 5495 5487 5489 5484 5488 5488 5488 5489 5488 5495 5496 5496 5494 5492 5509 5538 5536 5542 5537 5531 5527 5531 5529 5525 5519 5503 5509 5496 5478 5477 5485 5483 5480 5460 5460 5462 5453 5449 5460 5474 5483
5499 5502 5486 5484 5486 5472 5477 5478 5472 5473 5475 5478 5476 5478 5477 5487 5493 5488 5480 5478 5514 5526 5528 5526 5521 5519 5521 5521 5518 5511 5504 5478 5498 5494 5462 5462 5479 5486 5472 5471 5458 5454 5446 5456 5457 5479 5475
5466 5464 5474 5467 5459 5463 5461 5463 5457 5464 5465 5464 5464 5467 5466 5476 5485 5477 5469 5491 5511 5522 5519 5518 5514 5518 5510 5507 5500 5495 5490 5491 5492 5492 5470 5469 5460 5480 5473 5467 5470 5459 5466 5450 5464 5473 5475
5443 5436 5438 5445 5445 5446 5445 5446 5441 5453 5454 5451 5451 5454 5459 5463 5473 5464 5458 5474 5499 5507 5509 5507 5504 5503 5497 5496 5494 5484 5473 5484 5489 5484 5479 5464 5437 5460 5456 5440 5448 5447 5453 5454 5446 5463 5476
5425 5427 5423 5425 5431 5432 5432 5423 5432 5443 5439 5444 5438 5438 5446 5455 5452 5455 5458 5484 5495 5489 5493 5494 5493 5493 5489 5488 5483 5479 5472 5478 5481 5477 5464 5451 5422 5427 5446 5463 5462 5459 5448 5455 5445 5463 5470
5413 5412 5411 5411 5422 5420 5419 5422 5422 5429 5427 5432 5432 5428 5435 5445 5433 5440 5466 5483 5488 5484 5483 5482 5483 5486 5485 5476 5469 5470 5478 5478 5466 5462 5455 5443 5411 5414 5446 5449 5458 5451 5466 5462 5469 5476 5474
5398 5398 5400 5404 5409 5409 5412 5408 5410 5416 5424 5423 5426 5416 5420 5426 5438 5445 5454 5466 5471 5475 5474 5476 5474 5473 5469 5465 5467 5464 5467 5468 5456 5450 5454 5436 5413 5393 5390 5414 5429 5433 5454 5462 5453 5473 5478
5393 5393 5395 5395 5398 5398 5399 5401 5403 5409 5413 5416 5417 5417 5426 5408 5419 5437 5445 5461 5462 5459 5467 5467 5464 5465 5457 5451 5457 5454 5451 5446 5445 5445 5435 5427 5401 5405 5421 5430 5437 5446 5438 5444 5454 5450 5461
5383 5383 5386 5387 5389 5388 5390 5394 5393 5395 5402 5405 5403 5418 5421 5426 5434 5426 5431 5447 5454 5458 5453 5453 5453 5453 5445 5444 5443 5437 5438 5432 5425 5429 5425 5414 5403 5420 5431 5439 5450 5457 5447 5448 5450 5442 5460
5374 5374 5376 5378 5380 5382 5382 5386 5382 5386 5395 5393 5401 5412 5417 5413 5418 5419 5425 5441 5445 5450 5448 5450 5445 5439 5438 5439 5440 5437 5431 5429 5427 5421 5412 5407 5403 5411 5433 5444 5450 5447 5428 5440 5438 5434 5434
5368 5369 5370 5372 5372 5374 5374 5376 5377 5380 5385 5390 5392 5399 5397 5395 5414 5420 5433 5437 5434 5440 5435 5435 5435 5435 5438 5437 5439 5434 5431 5433 5427 5425 5417 5405 5401 5401 5417 5435 5418 5427 5434 5434 5432 5437 5430
5364 5364 5364 5364 5365 5365 5366 5368 5370 5374 5376 5381 5384 5389 5392 5389 5405 5413 5420 5426 5421 5423 5426 5431 5437 5435 5432 5428 5413 5414 5419 5433 5439 5436 5422 5419 5410 5409 5421 5425 5445 5424 5429 5418 5418 5431 5421
5360 5359 5360 5361 5359 5359 5360 5361 5363 5366 5371 5372 5377 5383 5385 5384 5387 5402 5403 5410 5403 5407 5409 5422 5429 5426 5421 5403 5393 5405 5400 5422 5424 5425 5432 5426 5417 5410 5412 5411 5425 5400 5422 5429 5427 5431 5415
5357 5356 5356 5356 5357 5356 5356 5357 5358 5361 5366 5368 5371 5378 5380 5371 5380 5391 5390 5397 5403 5398 5396 5405 5412 5414 5409 5372 5384 5389 5391 5418 5407 5405 5406 5400 5396 5400 5400 5402 5399 5394 5408 5424 5431 5401 5403
5355 5355 5354 5354 5354 5354 5353 5354 5355 5358 5362 5363 5362 5371 5373 5365 5372 5382 5387 5383 5388 5387 5386 5390 5389 5390 5381 5375 5378 5370 5383 5398 5393 5401 5399 5384 5389 5368 5383 5390 5386 5386 5406 5399 5385 5388 5392
5350 5352 5353 5353 5352 5354 5352 5353 5353 5353 5357 5361 5358 5364 5369 5364 5367 5376 5382 5385 5389 5391 5382 5381 5383 5389 5386 5375 5374 5377 5378 5361 5381 5369 5384 5364 5372 5367 5370 5374 5379 5378 5378 5380 5379 5381 5384